Tracking 29892 objects as of 21-Nov-2024
HD Live streaming from Space Station
objects crossing your sky now

STARLINK-4389

Track STARLINK-4389 now!
10-day predictions
STARLINK-4389 is classified as:


NORAD ID: 53475
Int'l Code: 2022-099L
Perigee: 568.9 km
Apogee: 571.4 km
Inclination: 97.7 °
Period: 95.9 minutes
Semi major axis: 6941 km
RCS: Unknown
Launch date: August 12, 2022
Source: United States (US)
Launch site: AIR FORCE WESTERN TEST RANGE (AFWTR)
Your satellite tracking list
Your tracking list is empty




NASA's NSSDC Master Catalog

Two Line Element Set (TLE):
1 53475U 22099L   24325.27943530  .00000736  00000-0  61903-4 0  9994
2 53475  97.6561  83.8932 0001742  85.4524 274.6899 15.01260083125509
Source of the keplerian elements: AFSPC